EW3861 Weather Reports


time (UTC)temp
F
wind
direction
speed
knots
gust
knots
rain 1hr
in
rain 24hr
in
rain mn
in
humidity
%
barometer
mb
20260903083032 62 277 0.0 0.0 0.00 0.00 0.00 93 1014.9
20260903081617 62 277 0.0 0.0 0.00 0.00 0.00 93 1015.0
20260903080031 62 277 0.0 0.0 0.00 0.00 0.00 92 1014.8
20260903074633 62 277 0.0 0.0 0.00 0.00 0.00 92 1015.0
20260903073027 62 277 0.0 0.0 0.00 0.00 0.00 92 1015.2
20260903071610 62 277 0.0 0.0 0.00 0.00 0.00 91 1015.5
20260903070011 62 277 0.0 0.0 0.00 0.00 0.00 91 1015.7
20260903064554 62 277 0.0 0.0 0.00 0.00 0.00 92 1016.1
20260903063011 62 277 0.0 0.0 0.00 0.00 0.00 92 1016.2
20260903061605 62 277 0.0 0.0 0.00 0.00 0.00 92 1016.6
20260903060012 62 277 0.0 0.0 0.00 0.00 0.00 92 1016.8
20260903054613 62 277 0.0 0.0 0.00 0.00 0.00 91 1017.1
20260903053016 62 277 0.0 0.0 0.00 0.00 0.00 91 1017.2
20260903051602 61 277 0.0 0.0 0.00 0.00 0.00 91 1017.4
20260903050021 61 277 0.0 0.0 0.00 0.00 0.00 91 1017.6
20260903044610 61 277 0.0 0.0 0.00 0.00 0.00 92 1017.8
20260903043022 61 277 0.0 0.0 0.00 0.00 0.00 91 1017.6
20260903041604 61 277 0.0 0.0 0.00 0.00 0.00 92 1017.5
20260903040059 61 277 0.0 0.0 0.00 0.00 0.00 91 1017.3
20260903034601 61 277 0.0 0.0 0.00 0.00 0.00 91 1017.6
20260903033100 61 277 0.0 0.0 0.00 0.00 0.00 91 1018.0
20260903031629 61 277 0.0 0.0 0.00 0.00 0.00 91 1018.2
20260903030056 61 277 0.0 0.0 0.00 0.00 0.00 91 1018.0
20260903024556 61 277 0.0 0.0 0.00 0.00 0.00 90 1018.5
20260903023051 62 277 0.0 0.0 0.00 0.00 0.00 88 1018.6
20260903021551 62 277 0.0 0.0 0.00 0.00 0.00 88 1018.5
20260903020053 62 277 0.0 0.0 0.00 0.00 0.00 87 1018.4
20260903014556 63 277 0.0 0.0 0.00 0.00 0.00 86 1018.2
20260903013051 63 277 0.0 0.0 0.00 0.00 0.00 85 1018.4
20260903011556 63 277 0.0 0.0 0.00 0.00 0.00 85 1018.5
20260903010051 64 277 0.0 0.0 0.00 0.00 0.00 84 1018.6
20260903004550 64 277 0.0 0.0 0.00 0.00 0.00 83 1018.7
20260903003052 65 277 0.0 0.0 0.00 0.00 0.00 82 1018.8
20260903001548 65 277 0.0 0.0 0.00 0.00 0.00 81 1018.9
20260903000047 66 277 0.0 0.0 0.00 0.00 0.00 80 1019.1
20260902234557 66 277 0.0 0.0 0.00 0.00 0.00 77 1019.5
20260902233047 67 277 0.0 0.0 0.00 0.00 0.00 75 1019.3
20260902231546 68 277 0.0 0.0 0.00 0.00 0.00 75 1019.3
20260902230049 69 277 0.0 0.0 0.00 0.00 0.00 74 1019.6
20260902224546 69 277 0.0 0.0 0.00 0.00 0.00 72 1019.5
20260902223047 70 277 0.0 0.0 0.00 0.00 0.00 72 1019.5
20260902221544 71 277 0.0 0.0 0.00 0.00 0.00 70 1019.4
20260902220045 71 277 0.0 0.0 0.00 0.00 0.00 69 1019.3
20260902214543 72 277 0.0 0.0 0.00 0.00 0.00 69 1018.8
20260902213045 72 277 0.0 0.0 0.00 0.00 0.00 69 1018.8
20260902211548 73 292 0.0 0.0 0.00 0.00 0.00 66 1018.8
20260902210047 74 244 0.0 0.0 0.00 0.00 0.00 68 1019.1
20260902204542 75 244 0.0 0.0 0.00 0.00 0.00 63 1019.3
20260902203055 76 244 0.0 0.0 0.00 0.00 0.00 60 1019.3
20260902201544 76 242 0.0 0.0 0.00 0.00 0.00 57 1019.3
20260902200052 77 242 0.0 0.0 0.00 0.00 0.00 57 1019.2
20260902194538 77 240 0.0 0.0 0.00 0.00 0.00 57 1019.5
20260902193038 76 286 0.0 0.0 0.00 0.00 0.00 61 1019.5
20260902191548 76 317 0.0 0.0 0.00 0.00 0.00 59 1019.7
20260902190036 77 315 0.0 0.0 0.00 0.00 0.00 62 1019.8
20260902184546 76 292 0.0 0.0 0.00 0.00 0.00 64 1019.8
20260902183034 77 333 0.0 0.0 0.00 0.00 0.00 65 1019.6
20260902181535 76 314 0.0 0.0 0.00 0.00 0.00 62 1019.6
20260902180033 75 215 0.0 0.0 0.00 0.00 0.00 66 1019.5
20260902174527 74 312 0.0 0.0 0.00 0.00 0.00 70 1019.7
20260902173024 73 319 0.0 0.0 0.00 0.00 0.00 69 1019.9
20260902171522 73 329 0.0 0.0 0.00 0.00 0.00 71 1020.0
20260902170021 73 24 0.0 0.0 0.00 0.00 0.00 71 1020.1
20260902164519 72 320 0.0 0.0 0.00 0.00 0.00 71 1020.1
20260902163018 72 232 0.0 0.0 0.00 0.00 0.00 72 1020.1
20260902161515 71 275 0.0 0.0 0.00 0.00 0.00 73 1020.3
20260902160014 71 275 0.0 0.0 0.00 0.00 0.00 74 1020.4
20260902154521 69 234 0.0 0.0 0.00 0.00 0.00 77 1020.8
20260902153010 68 306 0.0 0.0 0.00 0.00 0.00 80 1021.0
20260902151505 68 235 0.0 0.0 0.00 0.00 0.00 83 1020.9
20260902150100 66 254 0.0 0.0 0.00 0.00 0.00 87 1020.9
20260902144555 65 254 0.0 0.0 0.00 0.00 0.00 91 1020.8
20260902143052 65 327 0.0 0.0 0.00 0.00 0.00 96 1020.6
20260902141550 64 327 0.0 0.0 0.00 0.00 0.00 97 1020.4
20260902140049 63 348 0.0 0.0 0.00 0.00 0.00 97 1020.3
20260902134554 63 335 0.0 0.0 0.00 0.00 0.00 98 1020.2
20260902133048 64 306 0.0 0.0 0.00 0.00 0.00 98 1019.9
20260902131557 64 241 0.0 0.0 0.00 0.00 0.00 98 1020.0
20260902130046 64 232 0.0 0.0 0.00 0.00 0.00 98 1020.1
20260902124545 63 229 0.0 0.0 0.00 0.00 0.00 98 1020.4
20260902123101 62 229 0.0 0.0 0.00 0.00 0.00 98 1020.3
20260902121550 61 229 0.0 0.0 0.00 0.00 0.00 98 1020.5
20260902120035 60 229 0.0 0.0 0.00 0.00 0.00 98 1020.6
20260902114533 59 229 0.0 0.0 0.00 0.00 0.00 98 1020.7
20260902113031 59 229 0.0 0.0 0.00 0.00 0.00 98 1020.6
20260902111537 58 229 0.0 0.0 0.00 0.00 0.00 97 1020.5
20260902110029 58 229 0.0 0.0 0.00 0.00 0.00 97 1020.4
20260902104527 58 229 0.0 0.0 0.00 0.00 0.00 97 1020.1
20260902103025 58 229 0.0 0.0 0.00 0.00 0.00 97 1019.9
20260902101523 58 229 0.0 0.0 0.00 0.00 0.00 97 1019.7
20260902100021 58 229 0.0 0.0 0.00 0.00 0.00 97 1019.4
20260902094520 58 229 0.0 0.0 0.00 0.00 0.00 97 1019.5
20260902093020 58 229 0.0 0.0 0.00 0.00 0.00 97 1019.3
20260902091518 58 229 0.0 0.0 0.00 0.00 0.00 97 1019.3
20260902090018 58 229 0.0 0.0 0.00 0.00 0.00 97 1019.2